Auburn, CA

8:52 AM PST on December 12, 2017 (GMT -0800)
Auburn Municipal

Weather History for KAUN - November, 2012

Change the Weather History Date:

Thursday, November 8, 2012

  Actual Average Record
Temperature  
Mean Temperature 48 °F -  
Max Temperature 55 °F 65 °F 81 °F (1991)
Min Temperature 41 °F 45 °F 37 °F (1983)
Degree Days  
Heating Degree Days 16    
Moisture  
Dew Point 42 °F    
Average Humidity 81    
Maximum Humidity 93    
Minimum Humidity 50    
Precipitation  
Precipitation 0.05 in - - ()
Sea Level Pressure  
Sea Level Pressure 29.86 in    
Wind  
Wind Speed 10 mph (South)    
Max Wind Speed 16 mph    
Max Gust Speed 24 mph    
Visibility 10 miles    
Events      
Averages and records for this station are not official NWS values.
T = Trace of Precipitation, MM = Missing Value Source: NWS Daily Summary

Daily Weather History Graph

Daily Weather History Graph

Search for Another Location

Airport or City:

Trip Planner

Search our weather history database for the weather conditions in past years. The results will help you decide how hot, cold, wet, or windy it might be!

Date:

Astronomy

Nov. 08, 2012 Rise Set
Actual Time 6:39 AM PST 4:55 PM PST
Civil Twilight 6:11 AM PST 5:23 PM PST
Nautical Twilight 5:39 AM PST 5:55 PM PST
Astronomical Twilight 5:08 AM PST 6:27 PM PST
Moon 12:43 AM PST (11/8) 1:37 PM PST (11/8)
Length of Visible Light 11h 12m
Length of Day
10h 15m
Waning Crescent, 32% of the Moon is Illuminated
Nov 8
Waning Crescent
Nov 13
New
Nov 20
First Quarter
Nov 28
Full
Dec 6
Last Quarter

Hourly Weather History & Observations

Time (PST) Temp. Windchill Dew Point Humidity Pressure Visibility Wind Dir Wind Speed Gust Speed Precip Events Conditions
12:15 AM 55.4 °F - 48.2 °F 77% 29.88 in 10.0 mi South 9.2 mph - N/A   Clear
12:35 AM 53.6 °F - 48.2 °F 82% 29.88 in 10.0 mi South 5.8 mph - N/A   Clear
1:15 AM 53.6 °F - 46.4 °F 77% 29.85 in 10.0 mi SSE 12.7 mph - N/A   Partly Cloudy
1:35 AM 55.4 °F - 48.2 °F 77% 29.84 in 10.0 mi SSE 9.2 mph - N/A   Partly Cloudy
1:55 AM 55.4 °F - 48.2 °F 77% 29.85 in 10.0 mi South 8.1 mph - N/A   Mostly Cloudy
2:15 AM 53.6 °F - 48.2 °F 82% 29.84 in 10.0 mi South 9.2 mph - N/A   Mostly Cloudy
2:35 AM 53.6 °F - 48.2 °F 82% 29.83 in 10.0 mi SSE 13.8 mph 17.3 mph N/A   Mostly Cloudy
2:55 AM 51.8 °F - 48.2 °F 88% 29.85 in 10.0 mi SSW 13.8 mph 20.7 mph N/A   Overcast
3:35 AM 50.0 °F - 46.4 °F 87% 29.84 in 10.0 mi South 11.5 mph 19.6 mph N/A   Mostly Cloudy
3:55 AM 50.0 °F - 44.6 °F 82% 29.83 in 10.0 mi South 13.8 mph 19.6 mph N/A   Scattered Clouds
4:15 AM 48.2 °F - 44.6 °F 87% 29.84 in 10.0 mi South 10.4 mph - N/A   Clear
4:35 AM 48.2 °F - 44.6 °F 87% 29.84 in 10.0 mi South 9.2 mph 17.3 mph N/A   Clear
4:55 AM 48.2 °F - 44.6 °F 87% 29.84 in 10.0 mi South 11.5 mph - N/A   Clear
5:15 AM 48.2 °F - 44.6 °F 87% 29.85 in 10.0 mi South 12.7 mph 18.4 mph N/A   Scattered Clouds
5:35 AM 48.2 °F - 44.6 °F 87% 29.85 in 10.0 mi South 13.8 mph 23.0 mph N/A   Overcast
5:55 AM 46.4 °F 40.1 °F 42.8 °F 87% 29.84 in 10.0 mi South 15.0 mph 24.2 mph N/A   Overcast
6:15 AM 46.4 °F 40.4 °F 42.8 °F 87% 29.85 in 10.0 mi South 13.8 mph 23.0 mph N/A   Mostly Cloudy
6:35 AM 46.4 °F 39.8 °F 42.8 °F 87% 29.85 in 10.0 mi South 16.1 mph 23.0 mph N/A   Mostly Cloudy
6:55 AM 46.4 °F 40.4 °F 41.0 °F 81% 29.86 in 10.0 mi South 13.8 mph 18.4 mph N/A   Overcast
7:15 AM 46.4 °F 41.1 °F 41.0 °F 81% 29.86 in 10.0 mi South 11.5 mph 23.0 mph N/A   Overcast
7:35 AM 46.4 °F 41.1 °F 41.0 °F 81% 29.88 in 10.0 mi South 11.5 mph 20.7 mph N/A   Overcast
7:55 AM 46.4 °F 40.7 °F 39.2 °F 76% 29.89 in 10.0 mi South 12.7 mph 19.6 mph N/A   Overcast
8:15 AM 46.4 °F 41.5 °F 39.2 °F 76% 29.90 in 10.0 mi South 10.4 mph 19.6 mph N/A   Overcast
8:35 AM 46.4 °F 40.7 °F 39.2 °F 76% 29.90 in 10.0 mi South 12.7 mph 21.9 mph N/A   Overcast
8:55 AM 46.4 °F 41.9 °F 39.2 °F 76% 29.90 in 10.0 mi South 9.2 mph 20.7 mph N/A   Mostly Cloudy
9:15 AM 46.4 °F 40.4 °F 39.2 °F 76% 29.90 in 10.0 mi South 13.8 mph 20.7 mph N/A   Mostly Cloudy
9:35 AM 46.4 °F 41.9 °F 39.2 °F 76% 29.91 in 10.0 mi South 9.2 mph - N/A   Overcast
9:55 AM 48.2 °F - 37.4 °F 66% 29.91 in 10.0 mi SSE 15.0 mph 19.6 mph N/A   Mostly Cloudy
10:15 AM 48.2 °F - 39.2 °F 71% 29.92 in 10.0 mi South 11.5 mph 16.1 mph N/A   Mostly Cloudy
10:35 AM 51.8 °F - 37.4 °F 58% 29.92 in 10.0 mi South 15.0 mph 23.0 mph N/A   Mostly Cloudy
10:55 AM 51.8 °F - 37.4 °F 58% 29.92 in 10.0 mi South 12.7 mph 20.7 mph N/A   Mostly Cloudy
11:15 AM 50.0 °F - 37.4 °F 62% 29.91 in 10.0 mi SSE 13.8 mph 20.7 mph N/A   Mostly Cloudy
11:35 AM 51.8 °F - 35.6 °F 54% 29.91 in 10.0 mi South 8.1 mph 20.7 mph N/A   Scattered Clouds
11:55 AM 53.6 °F - 35.6 °F 51% 29.90 in 10.0 mi South 15.0 mph 19.6 mph N/A   Mostly Cloudy
12:15 PM 53.6 °F - 35.6 °F 51% 29.89 in 10.0 mi South 12.7 mph 19.6 mph N/A   Mostly Cloudy
12:35 PM 51.8 °F - 33.8 °F 50% 29.88 in 10.0 mi South 12.7 mph 19.6 mph N/A   Mostly Cloudy
12:55 PM 53.6 °F - 35.6 °F 51% 29.88 in 10.0 mi South 15.0 mph 21.9 mph N/A   Mostly Cloudy
1:15 PM 51.8 °F - 35.6 °F 54% 29.87 in 10.0 mi SSW 12.7 mph - N/A   Overcast
1:35 PM 51.8 °F - 35.6 °F 54% 29.85 in 10.0 mi South 10.4 mph - N/A   Overcast
1:55 PM 48.2 °F - 41.0 °F 76% 29.86 in 3.0 mi SW 9.2 mph 16.1 mph N/A   Overcast
2:15 PM 46.4 °F 41.1 °F 44.6 °F 93% 29.86 in 1.2 mi SW 11.5 mph - N/A   Overcast
2:35 PM 46.4 °F 40.4 °F 44.6 °F 93% 29.85 in 1.5 mi WSW 13.8 mph 19.6 mph N/A   Overcast
3:15 PM 44.6 °F 39.7 °F 42.8 °F 93% 29.86 in 1.8 mi SSW 9.2 mph - N/A   Overcast
3:35 PM 44.6 °F 40.2 °F 42.8 °F 93% 29.84 in 8.0 mi South 8.1 mph - N/A   Overcast
3:55 PM 44.6 °F 41.4 °F 41.0 °F 87% 29.84 in 10.0 mi South 5.8 mph - 0.01 in   Partly Cloudy
4:15 PM 46.4 °F 42.9 °F 42.8 °F 87% 29.84 in 10.0 mi South 6.9 mph - N/A   Scattered Clouds
4:35 PM 46.4 °F - 42.8 °F 87% 29.84 in 10.0 mi Calm Calm - N/A   Scattered Clouds
4:55 PM 46.4 °F 42.9 °F 44.6 °F 93% 29.84 in 10.0 mi South 6.9 mph - 0.01 in   Scattered Clouds
5:15 PM 46.4 °F 42.9 °F 44.6 °F 93% 29.84 in 10.0 mi South 6.9 mph - N/A   Mostly Cloudy
5:35 PM 46.4 °F 43.5 °F 44.6 °F 93% 29.85 in 10.0 mi South 5.8 mph - N/A   Overcast
5:55 PM 46.4 °F 42.4 °F 44.6 °F 93% 29.85 in 10.0 mi South 8.1 mph - 0.01 in   Overcast
6:15 PM 46.4 °F 42.9 °F 44.6 °F 93% 29.84 in 10.0 mi SSW 6.9 mph - N/A   Overcast
6:35 PM 46.4 °F 43.5 °F 44.6 °F 93% 29.84 in 10.0 mi South 5.8 mph - N/A   Overcast
6:55 PM 46.4 °F 43.5 °F 44.6 °F 93% 29.84 in 10.0 mi SW 5.8 mph - N/A   Overcast
7:15 PM 46.4 °F 42.4 °F 44.6 °F 93% 29.84 in 10.0 mi SSW 8.1 mph - 0.01 in   Overcast
7:35 PM 46.4 °F 42.4 °F 44.6 °F 93% 29.83 in 9.0 mi SSW 8.1 mph - 0.01 in   Overcast
7:55 PM 46.4 °F 42.4 °F 44.6 °F 93% 29.83 in 10.0 mi South 8.1 mph - 0.01 in   Overcast
8:15 PM 46.4 °F 43.5 °F 44.6 °F 93% 29.84 in 10.0 mi SSW 5.8 mph - N/A   Overcast
8:35 PM 46.4 °F 42.9 °F 44.6 °F 93% 29.84 in 10.0 mi SSW 6.9 mph - N/A   Overcast
8:55 PM 44.6 °F 40.2 °F 42.8 °F 93% 29.84 in 10.0 mi South 8.1 mph - 0.01 in   Mostly Cloudy
9:15 PM 44.6 °F 40.7 °F 42.8 °F 93% 29.85 in 10.0 mi South 6.9 mph - N/A   Mostly Cloudy
9:35 PM 44.6 °F 41.4 °F 39.2 °F 81% 29.85 in 10.0 mi SSW 5.8 mph - N/A   Partly Cloudy
9:55 PM 44.6 °F 42.2 °F 42.8 °F 93% 29.86 in 10.0 mi South 4.6 mph - N/A   Mostly Cloudy
10:15 PM 44.6 °F 42.2 °F 42.8 °F 93% 29.87 in 10.0 mi South 4.6 mph - N/A   Mostly Cloudy
10:35 PM 42.8 °F 41.1 °F 41.0 °F 93% 29.86 in 10.0 mi SSE 3.5 mph - N/A   Scattered Clouds
11:15 PM 42.8 °F 38.6 °F 39.2 °F 87% 29.87 in 10.0 mi SSE 6.9 mph - N/A   Clear
11:35 PM 41.0 °F 37.1 °F 39.2 °F 93% 29.87 in 10.0 mi SE 5.8 mph - N/A   Clear